Lid_Strength_Index
14 15 15 16 16 15 16 17 17 16 14 14 16 15 14 14 14 13 13 13 13 12 10 9 9 9 9 8 8 8 8 8 8 9 9 9 9 7 6 6 5 4 4 4
15 17 15 14 15 15 15 16 17 15 13 14 16 17 15 14 14 13 13 13 13 13 12 10 9 10 9 8 8 8 8 7 8 8 8 8 8 7 7 6 6 5 5 4
17 15 13 14 15 15 18 16 17 16 14 14 15 17 15 13 13 13 13 13 13 13 13 11 9 9 9 9 9 8 8 7 7 7 7 7 7 7 7 7 6 6 5 5
16 14 14 15 15 16 18 16 15 15 17 19 16 20 17 15 14 14 13 14 13 13 12 11 9 9 9 8 8 8 7 7 6 7 7 8 8 9 8 7 6 6 5 5
17 16 16 16 16 15 17 15 16 16 19 19 18 20 18 15 16 15 14 14 14 13 12 11 9 9 8 8 8 8 7 7 7 7 7 8 8 8 7 7 7 6 6 5
16 15 15 16 15 15 14 14 15 17 18 22 19 19 19 18 15 15 14 14 13 13 12 10 9 9 9 8 8 8 8 7 7 7 7 8 8 8 8 8 8 7 6 6
17 16 15 14 15 14 13 17 22 22 23 23 18 19 17 15 14 13 14 14 13 12 11 11 10 10 10 9 8 8 8 8 7 7 7 7 7 7 8 8 7 7 7 7
20 21 17 14 16 17 16 16 22 24 23 21 18 20 18 14 13 13 12 12 12 12 11 11 10 9 9 9 8 8 7 8 7 7 7 7 7 7 7 7 7 7 7 7
19 20 16 15 15 15 16 18 16 18 19 21 20 18 16 15 15 14 14 13 13 12 11 10 9 9 9 9 9 8 8 7 7 7 7 8 7 7 7 7 7 7 7 6
16 20 17 16 15 14 15 14 19 22 26 26 22 20 20 17 16 15 14 14 12 11 11 10 10 9 9 9 8 8 8 7 7 7 7 7 7 7 7 7 7 7 7 7
16 18 18 17 18 17 16 17 17 19 20 23 24 21 17 16 15 15 14 13 12 12 11 10 10 9 9 9 9 8 8 7 7 7 7 7 7 7 7 7 7 7 7 7
15 18 20 19 16 15 16 17 16 23 23 19 20 21 16 16 15 14 14 13 12 11 11 10 10 10 9 9 9 9 8 8 7 7 7 7 7 7 7 7 7 7 7 7
15 19 23 20 17 16 17 16 21 22 19 19 23 20 14 15 14 14 14 13 13 12 12 10 10 10 10 9 9 9 9 8 8 7 7 7 7 7 7 7 7 7 7 7
12 17 20 20 19 19 23 19 21 22 23 20 19 19 17 16 15 15 14 14 13 12 11 11 11 11 10 10 9 9 9 8 8 8 8 8 7 7 7 7 7 7 7 7
14 19 19 18 16 18 18 18 19 22 19 19 19 18 16 16 16 15 13 13 13 12 12 11 11 11 11 10 9 9 9 8 8 8 8 8 7 7 7 7 6 6 7 7
15 19 17 19 16 16 17 17 17 17 18 18 18 18 16 14 13 13 14 13 13 13 12 12 11 10 10 10 9 9 9 9 9 9 8 8 7 7 7 7 6 6 7 7
16 18 19 21 17 18 20 17 17 17 16 16 18 16 15 15 14 14 14 13 13 13 12 11 11 10 10 10 9 9 9 9 8 8 8 7 7 7 7 7 7 7 7 7
17 18 19 22 18 26 17 14 14 16 15 15 15 14 14 14 14 13 13 13 13 12 11 11 11 11 10 10 10 9 9 9 9 9 9 8 8 8 7 7 7 7 7 7
15 17 22 23 21 18 17 15 16 17 16 13 14 14 13 13 13 14 11 11 12 12 11 12 11 11 10 11 10 10 10 10 10 10 10 9 9 9 9 9 8 8 8 7
14 16 19 22 25 25 17 15 14 15 18 13 13 14 14 14 17 16 12 11 11 11 11 12 11 11 11 11 10 11 12 11 11 10 10 9 9 10 10 9 9 9 8 8
17 19 23 24 23 19 15 14 14 20 18 13 13 13 14 15 15 13 11 12 12 12 12 11 11 12 12 11 11 12 12 13 11 10 10 10 10 10 10 10 10 9 9 8
17 20 23 22 26 22 13 15 17 16 14 14 13 13 13 13 12 13 12 12 13 13 12 12 12 13 13 13 13 13 13 12 11 11 11 11 11 11 10 10 10 9 9 9
17 16 18 18 17 14 15 15 14 14 14 14 13 13 12 13 13 12 13 13 13 12 12 11 13 15 14 14 14 14 13 13 12 12 12 11 11 11 10 10 10 10 9 9
14 13 17 15 14 15 15 14 14 13 13 12 12 12 12 13 13 13 13 13 13 13 13 12 14 15 14 14 14 14 13 12 12 13 12 11 11 11 10 10 9 9 8 8
14 13 15 17 16 15 15 14 14 13 12 13 12 12 13 13 13 14 14 14 14 14 14 13 14 15 15 15 14 13 13 12 13 12 11 11 11 11 10 9 8 7 6 5
14 15 16 18 15 15 15 14 13 13 13 12 13 14 13 14 14 14 15 14 14 14 14 14 14 15 15 14 14 13 12 12 12 12 11 11 10 10 8 8 8 6 5 4